Regional Weather Roundup
Issued by NWS

Home | Current Version | Previous Version | Text Only | Print | Product List | Glossary On
Versions: 1 2 3 4 5 6 7 8 9 10 11 12 13 14 15 16 17 18 19 20 21 22 23 24 25 26 27 28 29 30 31 32 33 34 35 36 37 38 39 40 41 42 43 44 45 46 47 48 49 50
000
ASUS43 KMKX 240210
RWRWI

WISCONSIN REGIONAL WEATHER ROUNDUP
NATIONAL WEATHER SERVICE MILWAUKEE/SULLIVAN WI
900 PM CDT MON APR 23 2018

NOTE: "FAIR" INDICATES FEW OR NO CLOUDS BELOW 12,000 FEET WITH NO
SIGNIFICANT WEATHER AND/OR OBSTRUCTIONS TO VISIBILITY.

WIZ001-002-006>008-014>016-023>028-240300-
NORTHWEST WISCONSIN

CITY           SKY/WX    TMP DP  RH WIND       PRES   REMARKS
SUPERIOR ARPT  FAIR      54  37  52 SW3       30.09S
ASHLAND        FAIR      49  32  52 S7        30.11S
HAYWARD        FAIR      47  29  49 CALM      30.13S
SIREN          FAIR      52  36  55 CALM      30.13R
CUMBERLAND     FAIR      48  32  53 CALM      30.13S
RICE LAKE      FAIR      51  34  51 CALM      30.15S
CHETEK         FAIR      49  33  55 CALM      30.13S
LADYSMITH      FAIR      50  32  48 N3        30.15S
EAU CLAIRE     FAIR      56  31  38 CALM      30.11S
MENOMONIE      FAIR      59  30  33 CALM      30.12S
NEW RICHMOND   FAIR      53  33  47 CALM      30.13S
OSCEOLA        FAIR      52  37  57 CALM      30.15S
$$

WIZ003>005-009-010-017-018-240300-
NORTH CENTRAL WISCONSIN

CITY           SKY/WX    TMP DP  RH WIND       PRES   REMARKS
MANITOWISH WTR FAIR      41  29  62 CALM      30.13S
ARBOR VITAE    FAIR      49  30  47 CALM      30.13S
WOODRUFF       FAIR      49  30  47 CALM      30.13S
RHINELANDER    FAIR      46  27  47 CALM      30.14R
EAGLE RIVER    FAIR      43  24  48 CALM      30.13R
LAND O LAKES   FAIR      41  24  50 CALM      30.15R
PHILLIPS       FAIR      44  30  57 CALM      30.13S
TOMAHAWK       FAIR      44  27  50 CALM      30.14R
MEDFORD        FAIR      48  31  51 CALM      30.13S
MERRILL        FAIR      48  30  48 CALM      30.14S
$$

WIZ029-030-035-036-043>047-240300-
CENTRAL WISCONSIN

CITY           SKY/WX    TMP DP  RH WIND       PRES   REMARKS
WAUSAU         FAIR      54  28  36 S3        30.12R
MOSINEE        CLEAR     54  23  30 S3        30.14S
MARSHFIELD     FAIR      51  32  48 CALM      30.12S
STEVENS POINT  FAIR      44  24  45 CALM      30.15R
WAUPACA        FAIR      50  27  41 CALM      30.15R
WAUTOMA        FAIR      46  31  55 CALM      30.15R
WISC RAPIDS    FAIR      47  24  40 CALM      30.14S
CAMP DOUGLAS   NOT AVBL
$$

WIZ011>013-019>022-031-037>040-048>050-240300-
NORTHEAST WISCONSIN

CITY           SKY/WX    TMP DP  RH WIND       PRES   REMARKS
ANTIGO         FAIR      44  33  64 S3        30.14S
SHAWANO        FAIR      47  31  53 CALM      30.14R
OCONTO         FAIR      42  26  52 CALM      30.14S
STURGEON BAY   FAIR      51  27  39 E5        30.15S
GREEN BAY      FAIR      49  42  77 N3        30.14S
MANITOWOC      FAIR      50  27  40 N3        30.15R
APPLETON       PTCLDY    52  27  37 VRB5      30.12S
CLINTONVILLE   FAIR      48  27  44 CALM      30.14S
OSHKOSH        FAIR      52  31  44 CALM      30.13S
$$

WIZ032>034-041-042-053>061-240300-
SOUTHWEST WISCONSIN

CITY           SKY/WX    TMP DP  RH WIND       PRES   REMARKS
LA CROSSE      FAIR      63  28  26 E3        30.10R
SPARTA         FAIR      50  29  44 CALM      30.13R
VIROQUA        FAIR      55  29  37 NE6       30.12R
BOSCOBEL       FAIR      52  32  46 NE3       30.11R
PRAIRIE DU CHI FAIR      55  31  41 E3        30.10R
PLATTEVILLE    FAIR      56  33  41 NE9       30.11S
$$

WIZ056-057-062-063-064-067-068-240300-
SOUTH CENTRAL WISCONSIN

CITY           SKY/WX    TMP DP  RH WIND       PRES   REMARKS
REEDSBURG      FAIR      55  30  38 CALM      30.12S
BARABOO/DELLS  FAIR      53  28  39 E6        30.12S
LONE ROCK      FAIR      55  34  45 E5        30.12R
MINERAL POINT  FAIR      55  32  41 NE6       30.12R
MADISON        FAIR      51  35  54 NE7       30.12R
MIDDLETON      FAIR      50  37  62 NE6       30.13R
WATERTOWN      FAIR      52  28  40 NE6       30.11S
MONROE         FAIR      55  28  35 NE7       30.10S
JANESVILLE     FAIR      52  30  43 E5        30.10S
$$

WIZ051-052-058>065-066-070>072-240300-
SOUTHEAST WISCONSIN

CITY           SKY/WX    TMP DP  RH WIND       PRES   REMARKS
MILWAUKEE      MOCLDY    51  25  36 N13       30.12F
WAUKESHA       CLEAR     50  21  32 NE6       30.13S
MILWAUKEE/TIMM CLEAR     52  18  25 NE8       30.13S
RACINE         FAIR      49  25  39 N13G22    30.13S
BURLINGTON     FAIR      52  25  34 NE7       30.12S
KENOSHA        FAIR      52  25  35 NE8       30.12R
FOND DU LAC    FAIR      49  34  56 CALM      30.13S
SHEBOYGAN      FAIR      45  31  58 NE7       30.13S
WEST BEND      FAIR      50  27  40 NE3       30.14R
JUNEAU         FAIR      50  35  56 NE3       30.14R
$$

LSZ147-162-240300-
LAKE SUPERIOR

STATION/POSITION TIME  TEMP    WIND        PRES    WAVE
                       AIR SEA DIR/SP/G            HT/PER
                 (UTC) (F)     (DEG/KT/KT) (MB)    (FT/S)
DEVILS ISLAND    0200   63     200/  8/  9 1018.9R
SAXON HARBOR     0140   44     190/  3/  4 1018.6S
$$

LMZ867-665-643>646-240300-
LAKE MICHIGAN

STATION/POSITION TIME  TEMP    WIND        PRES    WAVE
                       AIR SEA DIR/SP/G            HT/PER
                 (UTC) (F)     (DEG/KT/KT) (MB)    (FT/S)
NORTHPORT PIER   0140   44                 1020.7R
KEWAUNEE LAKESHO 0148   46      30/  4/  8 1020.0S
SHEBOYGAN LAKESH 0200   45      20/ 11/ 12 1020.6F
PORT WASHINGTON  0140   53      20/  5/  9 1021.0S
MILWAUKEE LAKESH 0150   51      10/ 14/ 18   N/A
KENOSHA   LAKESH 0200   48                 1019.6
$$

TC  - TEMPERATURE IN CELSIUS
VSB - VISIBILITY IN STATUTE MILES
WCI - WIND CHILL INDEX
HX  - HEAT INDEX





USA.gov is the U.S. government's official web portal to all federal, state and local government web resources and services.